#datetime,building,power
2022-06-17T00:00:00,cht,4.41
2022-06-17T00:01:00,cht,4.40
2022-06-17T00:02:00,cht,4.81
2022-06-17T00:03:00,cht,4.90
2022-06-17T00:04:00,cht,4.48
2022-06-17T00:05:00,cht,4.48
2022-06-17T00:06:00,cht,4.49
2022-06-17T00:07:00,cht,4.49
2022-06-17T00:08:00,cht,4.57
2022-06-17T00:09:00,cht,4.57
2022-06-17T00:10:00,cht,4.55
2022-06-17T00:11:00,cht,4.49
2022-06-17T00:12:00,cht,4.49
2022-06-17T00:13:00,cht,4.49
2022-06-17T00:14:00,cht,4.40
2022-06-17T00:15:00,cht,4.41
2022-06-17T00:16:00,cht,4.40
2022-06-17T00:17:00,cht,5.15
2022-06-17T00:18:00,cht,5.15
2022-06-17T00:19:00,cht,7.37
2022-06-17T00:20:00,cht,7.29
2022-06-17T00:21:00,cht,7.26
2022-06-17T00:22:00,cht,6.84
2022-06-17T00:23:00,cht,6.88
2022-06-17T00:24:00,cht,6.80
2022-06-17T00:25:00,cht,6.86
2022-06-17T00:26:00,cht,6.87
2022-06-17T00:27:00,cht,7.00
2022-06-17T00:28:00,cht,6.83
2022-06-17T00:29:00,cht,7.00
2022-06-17T00:30:00,cht,4.99
2022-06-17T00:31:00,cht,4.90
2022-06-17T00:32:00,cht,4.84
2022-06-17T00:33:00,cht,4.83
2022-06-17T00:34:00,cht,4.83
2022-06-17T00:35:00,cht,4.54
2022-06-17T00:36:00,cht,4.54
2022-06-17T00:37:00,cht,4.54
2022-06-17T00:38:00,cht,4.46
2022-06-17T00:39:00,cht,4.46
2022-06-17T00:40:00,cht,4.47
2022-06-17T00:41:00,cht,4.47
2022-06-17T00:42:00,cht,4.56
2022-06-17T00:43:00,cht,4.55
2022-06-17T00:44:00,cht,4.55
2022-06-17T00:45:00,cht,4.63
2022-06-17T00:46:00,cht,4.63
2022-06-17T00:47:00,cht,4.62
2022-06-17T00:48:00,cht,4.54
2022-06-17T00:49:00,cht,4.53
2022-06-17T00:50:00,cht,4.53
2022-06-17T00:51:00,cht,4.64
2022-06-17T00:52:00,cht,4.63
2022-06-17T00:53:00,cht,4.55
2022-06-17T00:54:00,cht,4.55
2022-06-17T00:55:00,cht,4.43
2022-06-17T00:56:00,cht,6.96
2022-06-17T00:57:00,cht,6.54
2022-06-17T00:58:00,cht,6.71
2022-06-17T00:59:00,cht,6.81
2022-06-17T01:00:00,cht,6.66
2022-06-17T01:01:00,cht,6.61
2022-06-17T01:02:00,cht,6.73
2022-06-17T01:03:00,cht,6.73
2022-06-17T01:04:00,cht,6.41
2022-06-17T01:05:00,cht,6.61
2022-06-17T01:06:00,cht,4.78
2022-06-17T01:07:00,cht,4.78
2022-06-17T01:08:00,cht,4.79
2022-06-17T01:09:00,cht,5.46
2022-06-17T01:10:00,cht,5.46
2022-06-17T01:11:00,cht,5.19
2022-06-17T01:12:00,cht,5.20
2022-06-17T01:13:00,cht,4.49
2022-06-17T01:14:00,cht,4.42
2022-06-17T01:15:00,cht,4.50
2022-06-17T01:16:00,cht,4.49
2022-06-17T01:17:00,cht,4.50
2022-06-17T01:18:00,cht,4.50
2022-06-17T01:19:00,cht,4.50
2022-06-17T01:20:00,cht,4.49
2022-06-17T01:21:00,cht,4.40
2022-06-17T01:22:00,cht,4.40
2022-06-17T01:23:00,cht,4.54
2022-06-17T01:24:00,cht,4.63
2022-06-17T01:25:00,cht,4.62
2022-06-17T01:26:00,cht,4.62
2022-06-17T01:27:00,cht,4.69
2022-06-17T01:28:00,cht,4.69
2022-06-17T01:29:00,cht,4.69
2022-06-17T01:30:00,cht,4.68
2022-06-17T01:31:00,cht,4.69
2022-06-17T01:32:00,cht,7.33
2022-06-17T01:33:00,cht,6.86
2022-06-17T01:34:00,cht,7.01
2022-06-17T01:35:00,cht,6.97
2022-06-17T01:36:00,cht,6.76
2022-06-17T01:37:00,cht,6.71
2022-06-17T01:38:00,cht,6.79
2022-06-17T01:39:00,cht,6.87
2022-06-17T01:40:00,cht,6.75
2022-06-17T01:41:00,cht,4.80
2022-06-17T01:42:00,cht,5.22
2022-06-17T01:43:00,cht,5.22
2022-06-17T01:44:00,cht,5.23
2022-06-17T01:45:00,cht,4.74
2022-06-17T01:46:00,cht,4.43
2022-06-17T01:47:00,cht,4.43
2022-06-17T01:48:00,cht,4.51
2022-06-17T01:49:00,cht,4.60
2022-06-17T01:50:00,cht,4.47
2022-06-17T01:51:00,cht,4.46
2022-06-17T01:52:00,cht,4.46
2022-06-17T01:53:00,cht,4.46
2022-06-17T01:54:00,cht,4.37
2022-06-17T01:55:00,cht,4.37
2022-06-17T01:56:00,cht,4.37
2022-06-17T01:57:00,cht,4.39
2022-06-17T01:58:00,cht,4.39
2022-06-17T01:59:00,cht,4.39
2022-06-17T02:00:00,cht,4.39
2022-06-17T02:01:00,cht,5.04
2022-06-17T02:02:00,cht,5.06
2022-06-17T02:03:00,cht,5.06
2022-06-17T02:04:00,cht,5.04
2022-06-17T02:05:00,cht,5.06
2022-06-17T02:06:00,cht,4.49
2022-06-17T02:07:00,cht,7.04
2022-06-17T02:08:00,cht,6.53
2022-06-17T02:09:00,cht,6.63
2022-06-17T02:10:00,cht,6.80
2022-06-17T02:11:00,cht,6.58
2022-06-17T02:12:00,cht,6.56
2022-06-17T02:13:00,cht,6.73
2022-06-17T02:14:00,cht,6.74
2022-06-17T02:15:00,cht,6.59
2022-06-17T02:16:00,cht,6.76
2022-06-17T02:17:00,cht,4.76
2022-06-17T02:18:00,cht,4.81
2022-06-17T02:19:00,cht,4.82
2022-06-17T02:20:00,cht,4.82
2022-06-17T02:21:00,cht,4.81
2022-06-17T02:22:00,cht,4.61
2022-06-17T02:23:00,cht,4.61
2022-06-17T02:24:00,cht,4.61
2022-06-17T02:25:00,cht,4.61
2022-06-17T02:26:00,cht,4.60
2022-06-17T02:27:00,cht,4.60
2022-06-17T02:28:00,cht,4.51
2022-06-17T02:29:00,cht,4.51
2022-06-17T02:30:00,cht,4.94
2022-06-17T02:31:00,cht,4.58
2022-06-17T02:32:00,cht,4.67
2022-06-17T02:33:00,cht,4.67
2022-06-17T02:34:00,cht,4.67
2022-06-17T02:35:00,cht,4.66
2022-06-17T02:36:00,cht,4.66
2022-06-17T02:37:00,cht,4.67
2022-06-17T02:38:00,cht,4.66
2022-06-17T02:39:00,cht,4.70
2022-06-17T02:40:00,cht,4.68
2022-06-17T02:41:00,cht,4.68
2022-06-17T02:42:00,cht,4.58
2022-06-17T02:43:00,cht,4.58
2022-06-17T02:44:00,cht,4.58
2022-06-17T02:45:00,cht,6.82
2022-06-17T02:46:00,cht,6.62
2022-06-17T02:47:00,cht,6.50
2022-06-17T02:48:00,cht,6.69
2022-06-17T02:49:00,cht,6.73
2022-06-17T02:50:00,cht,6.49
2022-06-17T02:51:00,cht,6.73
2022-06-17T02:52:00,cht,7.43
2022-06-17T02:53:00,cht,7.25
2022-06-17T02:54:00,cht,7.21
2022-06-17T02:55:00,cht,21.43
2022-06-17T02:56:00,cht,19.29
2022-06-17T02:57:00,cht,18.53
2022-06-17T02:58:00,cht,18.49
2022-06-17T02:59:00,cht,19.57
2022-06-17T03:00:00,cht,4.71
2022-06-17T03:01:00,cht,4.31
2022-06-17T03:02:00,cht,4.31
2022-06-17T03:03:00,cht,4.30
2022-06-17T03:04:00,cht,4.31
2022-06-17T03:05:00,cht,4.40
2022-06-17T03:06:00,cht,4.39
2022-06-17T03:07:00,cht,7.10
2022-06-17T03:08:00,cht,4.41
2022-06-17T03:09:00,cht,4.39
2022-06-17T03:10:00,cht,4.40
2022-06-17T03:11:00,cht,4.40
2022-06-17T03:12:00,cht,4.40
2022-06-17T03:13:00,cht,4.58
2022-06-17T03:14:00,cht,4.57
2022-06-17T03:15:00,cht,4.69
2022-06-17T03:16:00,cht,4.59
2022-06-17T03:17:00,cht,4.60
2022-06-17T03:18:00,cht,4.50
2022-06-17T03:19:00,cht,4.50
2022-06-17T03:20:00,cht,4.60
2022-06-17T03:21:00,cht,4.58
2022-06-17T03:22:00,cht,4.91
2022-06-17T03:23:00,cht,7.42
2022-06-17T03:24:00,cht,7.04
2022-06-17T03:25:00,cht,6.84
2022-06-17T03:26:00,cht,6.86
2022-06-17T03:27:00,cht,6.71
2022-06-17T03:28:00,cht,6.67
2022-06-17T03:29:00,cht,6.84
2022-06-17T03:30:00,cht,6.89
2022-06-17T03:31:00,cht,6.84
2022-06-17T03:32:00,cht,6.75
2022-06-17T03:33:00,cht,4.89
2022-06-17T03:34:00,cht,4.97
2022-06-17T03:35:00,cht,4.88
2022-06-17T03:36:00,cht,4.87
2022-06-17T03:37:00,cht,4.87
2022-06-17T03:38:00,cht,4.88
2022-06-17T03:39:00,cht,4.58
2022-06-17T03:40:00,cht,4.67
2022-06-17T03:41:00,cht,4.67
2022-06-17T03:42:00,cht,5.20
2022-06-17T03:43:00,cht,5.12
2022-06-17T03:44:00,cht,5.12
2022-06-17T03:45:00,cht,5.13
2022-06-17T03:46:00,cht,4.57
2022-06-17T03:47:00,cht,4.57
2022-06-17T03:48:00,cht,4.56
2022-06-17T03:49:00,cht,4.56
2022-06-17T03:50:00,cht,4.56
2022-06-17T03:51:00,cht,4.46
2022-06-17T03:52:00,cht,4.38
2022-06-17T03:53:00,cht,4.37
2022-06-17T03:54:00,cht,4.37
2022-06-17T03:55:00,cht,4.45
2022-06-17T03:56:00,cht,4.44
2022-06-17T03:57:00,cht,4.44
2022-06-17T03:58:00,cht,4.44
2022-06-17T03:59:00,cht,7.13
2022-06-17T04:00:00,cht,6.45
2022-06-17T04:01:00,cht,6.67
2022-06-17T04:02:00,cht,6.70
2022-06-17T04:03:00,cht,6.53
2022-06-17T04:04:00,cht,6.70
2022-06-17T04:05:00,cht,6.73
2022-06-17T04:06:00,cht,6.54
2022-06-17T04:07:00,cht,6.60
2022-06-17T04:08:00,cht,6.57
2022-06-17T04:09:00,cht,4.60
2022-06-17T04:10:00,cht,4.73
2022-06-17T04:11:00,cht,4.72
2022-06-17T04:12:00,cht,4.73
2022-06-17T04:13:00,cht,4.72
2022-06-17T04:14:00,cht,4.73
2022-06-17T04:15:00,cht,4.52
2022-06-17T04:16:00,cht,4.59
2022-06-17T04:17:00,cht,4.59
2022-06-17T04:18:00,cht,4.59
2022-06-17T04:19:00,cht,4.59
2022-06-17T04:20:00,cht,4.68
2022-06-17T04:21:00,cht,4.68
2022-06-17T04:22:00,cht,4.67
2022-06-17T04:23:00,cht,4.67
2022-06-17T04:24:00,cht,4.67
2022-06-17T04:25:00,cht,4.43
2022-06-17T04:26:00,cht,4.42
2022-06-17T04:27:00,cht,4.51
2022-06-17T04:28:00,cht,4.50
2022-06-17T04:29:00,cht,4.50
2022-06-17T04:30:00,cht,4.51
2022-06-17T04:31:00,cht,5.20
2022-06-17T04:32:00,cht,5.20
2022-06-17T04:33:00,cht,5.20
2022-06-17T04:34:00,cht,5.21
2022-06-17T04:35:00,cht,5.22
2022-06-17T04:36:00,cht,6.98
2022-06-17T04:37:00,cht,6.87
2022-06-17T04:38:00,cht,6.75
2022-06-17T04:39:00,cht,6.73
2022-06-17T04:40:00,cht,6.97
2022-06-17T04:41:00,cht,6.90
2022-06-17T04:42:00,cht,7.02
2022-06-17T04:43:00,cht,6.87
2022-06-17T04:44:00,cht,6.75
2022-06-17T04:45:00,cht,6.86
2022-06-17T04:46:00,cht,4.82
2022-06-17T04:47:00,cht,4.82
2022-06-17T04:48:00,cht,4.92
2022-06-17T04:49:00,cht,4.91
2022-06-17T04:50:00,cht,4.92
2022-06-17T04:51:00,cht,4.92
2022-06-17T04:52:00,cht,4.39
2022-06-17T04:53:00,cht,4.38
2022-06-17T04:54:00,cht,4.47
2022-06-17T04:55:00,cht,4.49
2022-06-17T04:56:00,cht,4.49
2022-06-17T04:57:00,cht,4.49
2022-06-17T04:58:00,cht,4.46
2022-06-17T04:59:00,cht,4.38
2022-06-17T05:00:00,cht,4.77
2022-06-17T05:01:00,cht,4.78
2022-06-17T05:02:00,cht,4.36
2022-06-17T05:03:00,cht,4.28
2022-06-17T05:04:00,cht,4.29
2022-06-17T05:05:00,cht,4.41
2022-06-17T05:06:00,cht,4.35
2022-06-17T05:07:00,cht,4.33
2022-06-17T05:08:00,cht,4.33
2022-06-17T05:09:00,cht,4.33
2022-06-17T05:10:00,cht,4.43
2022-06-17T05:11:00,cht,5.93
2022-06-17T05:12:00,cht,5.58
2022-06-17T05:13:00,cht,8.35
2022-06-17T05:14:00,cht,8.00
2022-06-17T05:15:00,cht,8.06
2022-06-17T05:16:00,cht,7.87
2022-06-17T05:17:00,cht,7.75
2022-06-17T05:18:00,cht,6.77
2022-06-17T05:19:00,cht,6.78
2022-06-17T05:20:00,cht,6.83
2022-06-17T05:21:00,cht,7.37
2022-06-17T05:22:00,cht,7.52
2022-06-17T05:23:00,cht,7.58
2022-06-17T05:24:00,cht,5.58
2022-06-17T05:25:00,cht,5.57
2022-06-17T05:26:00,cht,4.91
2022-06-17T05:27:00,cht,5.01
2022-06-17T05:28:00,cht,4.63
2022-06-17T05:29:00,cht,4.63
2022-06-17T05:30:00,cht,4.62
2022-06-17T05:31:00,cht,4.62
2022-06-17T05:32:00,cht,4.52
2022-06-17T05:33:00,cht,4.32
2022-06-17T05:34:00,cht,4.32
2022-06-17T05:35:00,cht,4.32
2022-06-17T05:36:00,cht,4.32
2022-06-17T05:37:00,cht,4.31
2022-06-17T05:38:00,cht,4.32
2022-06-17T05:39:00,cht,4.32
2022-06-17T05:40:00,cht,4.39
2022-06-17T05:41:00,cht,4.38
2022-06-17T05:42:00,cht,4.38
2022-06-17T05:43:00,cht,4.39
2022-06-17T05:44:00,cht,4.47
2022-06-17T05:45:00,cht,4.47
2022-06-17T05:46:00,cht,4.46
2022-06-17T05:47:00,cht,4.47
2022-06-17T05:48:00,cht,4.39
2022-06-17T05:49:00,cht,4.30
2022-06-17T05:50:00,cht,4.30
2022-06-17T05:51:00,cht,6.94
2022-06-17T05:52:00,cht,6.38
2022-06-17T05:53:00,cht,6.63
2022-06-17T05:54:00,cht,6.74
2022-06-17T05:55:00,cht,6.56
2022-06-17T05:56:00,cht,6.61
2022-06-17T05:57:00,cht,6.57
2022-06-17T05:58:00,cht,6.65
2022-06-17T05:59:00,cht,6.60
2022-06-17T06:00:00,cht,6.59
2022-06-17T06:01:00,cht,6.90
2022-06-17T06:02:00,cht,4.98
2022-06-17T06:03:00,cht,4.96
2022-06-17T06:04:00,cht,4.96
2022-06-17T06:05:00,cht,4.95
2022-06-17T06:06:00,cht,4.47
2022-06-17T06:07:00,cht,4.46
2022-06-17T06:08:00,cht,4.46
2022-06-17T06:09:00,cht,4.46
2022-06-17T06:10:00,cht,4.39
2022-06-17T06:11:00,cht,5.07
2022-06-17T06:12:00,cht,5.08
2022-06-17T06:13:00,cht,5.08
2022-06-17T06:14:00,cht,5.09
2022-06-17T06:15:00,cht,5.09
2022-06-17T06:16:00,cht,4.38
2022-06-17T06:17:00,cht,4.49
2022-06-17T06:18:00,cht,4.48
2022-06-17T06:19:00,cht,4.47
2022-06-17T06:20:00,cht,4.46
2022-06-17T06:21:00,cht,4.47
2022-06-17T06:22:00,cht,4.54
2022-06-17T06:23:00,cht,4.45
2022-06-17T06:24:00,cht,4.45
2022-06-17T06:25:00,cht,4.44
2022-06-17T06:26:00,cht,4.44
2022-06-17T06:27:00,cht,6.77
2022-06-17T06:28:00,cht,6.53
2022-06-17T06:29:00,cht,6.64
2022-06-17T06:30:00,cht,6.66
2022-06-17T06:31:00,cht,6.45
2022-06-17T06:32:00,cht,8.15
2022-06-17T06:33:00,cht,6.65
2022-06-17T06:34:00,cht,6.65
2022-06-17T06:35:00,cht,6.49
2022-06-17T06:36:00,cht,6.51
2022-06-17T06:37:00,cht,7.00
2022-06-17T06:38:00,cht,5.04
2022-06-17T06:39:00,cht,4.63
2022-06-17T06:40:00,cht,4.45
2022-06-17T06:41:00,cht,4.45
2022-06-17T06:42:00,cht,4.45
2022-06-17T06:43:00,cht,4.22
2022-06-17T06:44:00,cht,4.22
2022-06-17T06:45:00,cht,4.21
2022-06-17T06:46:00,cht,4.21
2022-06-17T06:47:00,cht,4.21
2022-06-17T06:48:00,cht,4.21
2022-06-17T06:49:00,cht,4.22
2022-06-17T06:50:00,cht,4.21
2022-06-17T06:51:00,cht,4.31
2022-06-17T06:52:00,cht,4.24
2022-06-17T06:53:00,cht,4.23
2022-06-17T06:54:00,cht,4.23
2022-06-17T06:55:00,cht,4.23
2022-06-17T06:56:00,cht,4.23
2022-06-17T06:57:00,cht,4.14
2022-06-17T06:58:00,cht,4.36
2022-06-17T06:59:00,cht,4.34
2022-06-17T07:00:00,cht,4.34
2022-06-17T07:01:00,cht,4.34
2022-06-17T07:02:00,cht,4.33
2022-06-17T07:03:00,cht,6.84
2022-06-17T07:04:00,cht,7.23
2022-06-17T07:05:00,cht,7.31
2022-06-17T07:06:00,cht,7.49
2022-06-17T07:07:00,cht,7.31
2022-06-17T07:08:00,cht,7.34
2022-06-17T07:09:00,cht,6.74
2022-06-17T07:10:00,cht,6.86
2022-06-17T07:11:00,cht,6.88
2022-06-17T07:12:00,cht,6.94
2022-06-17T07:13:00,cht,6.69
2022-06-17T07:14:00,cht,4.60
2022-06-17T07:15:00,cht,4.60
2022-06-17T07:16:00,cht,4.59
2022-06-17T07:17:00,cht,4.58
2022-06-17T07:18:00,cht,4.30
2022-06-17T07:19:00,cht,4.29
2022-06-17T07:20:00,cht,4.32
2022-06-17T07:21:00,cht,4.31
2022-06-17T07:22:00,cht,4.32
2022-06-17T07:23:00,cht,4.32
2022-06-17T07:24:00,cht,3.91
2022-06-17T07:25:00,cht,4.14
2022-06-17T07:26:00,cht,4.22
2022-06-17T07:27:00,cht,4.22
2022-06-17T07:28:00,cht,4.22
2022-06-17T07:29:00,cht,4.21
2022-06-17T07:30:00,cht,4.22
2022-06-17T07:31:00,cht,4.12
2022-06-17T07:32:00,cht,4.13
2022-06-17T07:33:00,cht,4.13
2022-06-17T07:34:00,cht,4.13
2022-06-17T07:35:00,cht,4.06
2022-06-17T07:36:00,cht,4.05
2022-06-17T07:37:00,cht,4.05
2022-06-17T07:38:00,cht,4.16
2022-06-17T07:39:00,cht,6.78
2022-06-17T07:40:00,cht,6.22
2022-06-17T07:41:00,cht,6.29
2022-06-17T07:42:00,cht,6.27
2022-06-17T07:43:00,cht,6.08
2022-06-17T07:44:00,cht,6.04
2022-06-17T07:45:00,cht,6.18
2022-06-17T07:46:00,cht,6.22
2022-06-17T07:47:00,cht,6.24
2022-06-17T07:48:00,cht,6.06
2022-06-17T07:49:00,cht,5.91
2022-06-17T07:50:00,cht,4.13
2022-06-17T07:51:00,cht,4.14
2022-06-17T07:52:00,cht,4.14
2022-06-17T07:53:00,cht,4.66
2022-06-17T07:54:00,cht,4.27
2022-06-17T07:55:00,cht,3.97
2022-06-17T09:49:00,cht,22.14
2022-06-17T09:50:00,cht,23.18
2022-06-17T09:51:00,cht,7.72
2022-06-17T09:52:00,cht,23.09
2022-06-17T09:53:00,cht,8.02
2022-06-17T09:54:00,cht,21.24
2022-06-17T09:55:00,cht,23.23
2022-06-17T09:56:00,cht,11.62
2022-06-17T09:57:00,cht,9.76
2022-06-17T09:58:00,cht,10.42
2022-06-17T09:59:00,cht,9.90
2022-06-17T10:00:00,cht,9.32
2022-06-17T10:01:00,cht,9.45
2022-06-17T10:02:00,cht,9.32
2022-06-17T10:03:00,cht,9.03
2022-06-17T10:04:00,cht,9.11
2022-06-17T10:05:00,cht,9.16
2022-06-17T10:06:00,cht,9.01
2022-06-17T10:07:00,cht,9.15
2022-06-17T10:08:00,cht,9.11
2022-06-17T10:09:00,cht,9.06
2022-06-17T10:10:00,cht,9.01
2022-06-17T10:11:00,cht,8.97
2022-06-17T10:12:00,cht,9.22
2022-06-17T10:13:00,cht,9.03
2022-06-17T10:14:00,cht,8.95
2022-06-17T10:15:00,cht,8.84
2022-06-17T10:16:00,cht,8.87
2022-06-17T10:17:00,cht,6.82
2022-06-17T10:18:00,cht,6.71
2022-06-17T10:19:00,cht,6.70
2022-06-17T10:20:00,cht,6.45
2022-06-17T10:21:00,cht,6.43
2022-06-17T10:22:00,cht,6.22
2022-06-17T10:23:00,cht,6.28
2022-06-17T10:24:00,cht,6.36
2022-06-17T10:25:00,cht,6.42
2022-06-17T10:26:00,cht,6.44
2022-06-17T10:27:00,cht,6.05
2022-06-17T10:28:00,cht,6.14
2022-06-17T10:29:00,cht,6.14
2022-06-17T10:30:00,cht,5.85
2022-06-17T10:31:00,cht,8.02
2022-06-17T10:32:00,cht,8.02
2022-06-17T10:33:00,cht,7.96
2022-06-17T10:34:00,cht,8.32
2022-06-17T10:35:00,cht,8.11
2022-06-17T10:36:00,cht,8.26
2022-06-17T10:37:00,cht,7.88
2022-06-17T10:38:00,cht,8.80
2022-06-17T10:39:00,cht,8.74
2022-06-17T10:40:00,cht,8.65
2022-06-17T10:41:00,cht,8.86
2022-06-17T10:42:00,cht,8.16
2022-06-17T10:43:00,cht,8.20
2022-06-17T10:44:00,cht,6.26
2022-06-17T10:45:00,cht,6.26
2022-06-17T10:46:00,cht,6.31
2022-06-17T10:47:00,cht,6.26
2022-06-17T10:48:00,cht,6.27
2022-06-17T10:49:00,cht,5.98
2022-06-17T10:50:00,cht,5.71
2022-06-17T10:51:00,cht,5.70
2022-06-17T10:52:00,cht,5.69
2022-06-17T10:53:00,cht,5.58
2022-06-17T10:54:00,cht,5.56
2022-06-17T10:55:00,cht,5.57
2022-06-17T10:56:00,cht,5.56
2022-06-17T10:57:00,cht,5.54
2022-06-17T10:58:00,cht,8.23
2022-06-17T10:59:00,cht,7.84
2022-06-17T11:00:00,cht,7.86
2022-06-17T11:01:00,cht,8.09
2022-06-17T11:02:00,cht,8.16
2022-06-17T11:03:00,cht,7.94
2022-06-17T11:04:00,cht,7.97
2022-06-17T11:05:00,cht,8.14
2022-06-17T11:06:00,cht,7.98
2022-06-17T11:07:00,cht,7.78
2022-06-17T11:08:00,cht,7.90
2022-06-17T11:09:00,cht,8.32
2022-06-17T11:10:00,cht,8.37
2022-06-17T11:11:00,cht,6.40
2022-06-17T11:12:00,cht,5.97
2022-06-17T11:13:00,cht,5.97
2022-06-17T11:14:00,cht,5.97
2022-06-17T11:15:00,cht,5.97
2022-06-17T11:16:00,cht,5.67
2022-06-17T11:17:00,cht,5.78
2022-06-17T11:18:00,cht,5.84
2022-06-17T11:19:00,cht,5.85
2022-06-17T11:20:00,cht,5.68
2022-06-17T11:21:00,cht,5.81
2022-06-17T11:22:00,cht,5.70
2022-06-17T11:23:00,cht,5.70
2022-06-17T11:24:00,cht,5.69
2022-06-17T11:25:00,cht,5.68
2022-06-17T11:26:00,cht,5.61
2022-06-17T11:27:00,cht,8.93
2022-06-17T11:28:00,cht,8.61
2022-06-17T11:29:00,cht,8.62
2022-06-17T11:30:00,cht,8.79
2022-06-17T11:31:00,cht,7.92
2022-06-17T11:32:00,cht,7.88
2022-06-17T11:33:00,cht,8.05
2022-06-17T11:34:00,cht,8.01
2022-06-17T11:35:00,cht,8.08
2022-06-17T11:36:00,cht,8.56
2022-06-17T11:37:00,cht,8.04
2022-06-17T11:38:00,cht,8.07
2022-06-17T11:39:00,cht,8.09
2022-06-17T11:40:00,cht,6.01
2022-06-17T11:41:00,cht,6.11
2022-06-17T11:42:00,cht,6.11
2022-06-17T11:43:00,cht,6.11
2022-06-17T11:44:00,cht,5.74
2022-06-17T11:45:00,cht,5.70
2022-06-17T11:46:00,cht,5.69
2022-06-17T11:47:00,cht,5.79
2022-06-17T11:48:00,cht,5.78
2022-06-17T11:49:00,cht,5.79
2022-06-17T11:50:00,cht,5.88
2022-06-17T11:51:00,cht,5.77
2022-06-17T11:52:00,cht,5.66
2022-06-17T11:53:00,cht,5.66
2022-06-17T11:54:00,cht,5.65
2022-06-17T11:55:00,cht,5.72
2022-06-17T11:56:00,cht,5.64
2022-06-17T11:57:00,cht,5.65
2022-06-17T11:58:00,cht,8.21
2022-06-17T11:59:00,cht,7.93
2022-06-17T12:00:00,cht,8.01
2022-06-17T12:01:00,cht,8.07
2022-06-17T12:02:00,cht,8.12
2022-06-17T12:03:00,cht,8.16
2022-06-17T12:04:00,cht,8.09
2022-06-17T12:05:00,cht,8.04
2022-06-17T12:06:00,cht,8.11
2022-06-17T12:07:00,cht,8.15
2022-06-17T12:08:00,cht,8.20
2022-06-17T12:09:00,cht,6.21
2022-06-17T12:10:00,cht,7.34
2022-06-17T12:11:00,cht,7.32
2022-06-17T12:12:00,cht,7.27
2022-06-17T12:13:00,cht,7.30
2022-06-17T12:14:00,cht,7.11
2022-06-17T12:15:00,cht,7.11
2022-06-17T12:16:00,cht,6.57
2022-06-17T12:17:00,cht,6.56
2022-06-17T12:18:00,cht,6.69
2022-06-17T12:19:00,cht,6.71
2022-06-17T12:20:00,cht,6.06
2022-06-17T12:21:00,cht,6.04
2022-06-17T12:22:00,cht,6.04
2022-06-17T12:23:00,cht,6.13
2022-06-17T12:24:00,cht,6.03
2022-06-17T12:25:00,cht,6.02
2022-06-17T12:26:00,cht,6.03
2022-06-17T12:27:00,cht,6.03
2022-06-17T12:28:00,cht,8.38
2022-06-17T12:29:00,cht,8.20
2022-06-17T12:30:00,cht,8.30
2022-06-17T12:31:00,cht,8.22
2022-06-17T12:32:00,cht,8.11
2022-06-17T12:33:00,cht,8.27
2022-06-17T12:34:00,cht,8.13
2022-06-17T12:35:00,cht,8.02
2022-06-17T12:36:00,cht,8.07
2022-06-17T12:37:00,cht,6.07
2022-06-17T12:38:00,cht,6.06
2022-06-17T12:39:00,cht,6.07
2022-06-17T12:40:00,cht,6.15
2022-06-17T12:41:00,cht,6.60
2022-06-17T12:42:00,cht,5.84
2022-06-17T12:43:00,cht,5.83
2022-06-17T12:44:00,cht,6.32
2022-06-17T12:45:00,cht,6.09
2022-06-17T12:46:00,cht,5.78
2022-06-17T12:47:00,cht,5.78
2022-06-17T12:48:00,cht,5.67
2022-06-17T12:49:00,cht,6.21
2022-06-17T12:50:00,cht,5.66
2022-06-17T12:51:00,cht,5.81
2022-06-17T12:52:00,cht,8.16
2022-06-17T12:53:00,cht,8.55
2022-06-17T12:54:00,cht,8.47
2022-06-17T12:55:00,cht,8.82
2022-06-17T12:56:00,cht,8.59
2022-06-17T12:57:00,cht,8.20
2022-06-17T12:58:00,cht,8.65
2022-06-17T12:59:00,cht,8.72
2022-06-17T13:00:00,cht,8.54
2022-06-17T13:01:00,cht,8.74
2022-06-17T13:02:00,cht,6.05
2022-06-17T13:03:00,cht,6.06
2022-06-17T13:04:00,cht,6.07
2022-06-17T13:05:00,cht,6.76
2022-06-17T13:06:00,cht,6.76
2022-06-17T13:07:00,cht,6.48
2022-06-17T13:08:00,cht,6.46
2022-06-17T13:09:00,cht,5.76
2022-06-17T13:10:00,cht,5.74
2022-06-17T13:11:00,cht,5.93
2022-06-17T13:12:00,cht,6.24
2022-06-17T13:13:00,cht,6.34
2022-06-17T13:14:00,cht,5.83
2022-06-17T13:15:00,cht,5.97
2022-06-17T13:16:00,cht,9.05
2022-06-17T13:17:00,cht,8.75
2022-06-17T13:18:00,cht,8.69
2022-06-17T13:19:00,cht,8.39
2022-06-17T13:20:00,cht,8.28
2022-06-17T13:21:00,cht,8.23
2022-06-17T13:22:00,cht,10.12
2022-06-17T13:23:00,cht,8.18
2022-06-17T13:24:00,cht,8.07
2022-06-17T13:25:00,cht,6.14
2022-06-17T13:26:00,cht,6.65
2022-06-17T13:27:00,cht,6.63
2022-06-17T13:28:00,cht,6.33
2022-06-17T13:29:00,cht,6.40
2022-06-17T13:30:00,cht,6.30
2022-06-17T13:31:00,cht,5.83
2022-06-17T13:32:00,cht,5.85
2022-06-17T13:33:00,cht,5.83
2022-06-17T13:34:00,cht,5.85
2022-06-17T13:35:00,cht,5.75
2022-06-17T13:36:00,cht,6.07
2022-06-17T13:37:00,cht,6.23
2022-06-17T13:38:00,cht,6.23
2022-06-17T13:39:00,cht,6.17
2022-06-17T13:40:00,cht,8.40
2022-06-17T13:41:00,cht,8.51
2022-06-17T13:42:00,cht,8.08
2022-06-17T13:43:00,cht,8.13
2022-06-17T13:44:00,cht,8.59
2022-06-17T13:45:00,cht,8.49
2022-06-17T13:46:00,cht,8.43
2022-06-17T13:47:00,cht,8.30
2022-06-17T13:48:00,cht,8.15
2022-06-17T13:49:00,cht,8.11
2022-06-17T13:50:00,cht,8.12
2022-06-17T13:51:00,cht,6.03
2022-06-17T13:52:00,cht,6.03
2022-06-17T13:53:00,cht,6.04
2022-06-17T13:54:00,cht,6.05
2022-06-17T13:55:00,cht,6.67
2022-06-17T13:56:00,cht,6.42
2022-06-17T13:57:00,cht,6.41
2022-06-17T13:58:00,cht,6.40
2022-06-17T13:59:00,cht,6.41
2022-06-17T14:00:00,cht,5.76
2022-06-17T14:01:00,cht,5.76
2022-06-17T14:02:00,cht,5.66
2022-06-17T14:03:00,cht,5.76
2022-06-17T14:04:00,cht,5.75
2022-06-17T14:05:00,cht,5.75
2022-06-17T14:06:00,cht,5.75
2022-06-17T14:07:00,cht,5.76
2022-06-17T14:08:00,cht,5.66
2022-06-17T14:09:00,cht,8.02
2022-06-17T14:10:00,cht,8.03
2022-06-17T14:11:00,cht,8.11
2022-06-17T14:12:00,cht,8.10
2022-06-17T14:13:00,cht,7.96
2022-06-17T14:14:00,cht,8.17
2022-06-17T14:15:00,cht,8.28
2022-06-17T14:16:00,cht,8.20
2022-06-17T14:17:00,cht,8.26
2022-06-17T14:18:00,cht,8.23
2022-06-17T14:19:00,cht,6.20
2022-06-17T14:20:00,cht,6.18
2022-06-17T14:21:00,cht,6.28
2022-06-17T14:22:00,cht,6.25
2022-06-17T14:23:00,cht,5.94
2022-06-17T14:24:00,cht,5.95
2022-06-17T14:25:00,cht,5.86
2022-06-17T14:26:00,cht,5.97
2022-06-17T14:27:00,cht,6.04
2022-06-17T14:28:00,cht,5.93
2022-06-17T14:29:00,cht,5.93
2022-06-17T14:30:00,cht,5.93
2022-06-17T14:31:00,cht,5.94
2022-06-17T14:32:00,cht,5.94
2022-06-17T14:33:00,cht,5.94
2022-06-17T14:34:00,cht,5.95
2022-06-17T14:35:00,cht,5.94
2022-06-17T14:36:00,cht,6.34
2022-06-17T14:37:00,cht,8.84
2022-06-17T14:38:00,cht,8.67
2022-06-17T14:39:00,cht,8.35
2022-06-17T14:40:00,cht,8.33
2022-06-17T14:41:00,cht,8.20
2022-06-17T14:42:00,cht,8.14
2022-06-17T14:43:00,cht,8.08
2022-06-17T14:44:00,cht,8.08
2022-06-17T14:45:00,cht,8.07
2022-06-17T14:46:00,cht,6.02
2022-06-17T14:47:00,cht,6.70
2022-06-17T14:48:00,cht,6.72
2022-06-17T14:49:00,cht,6.73
2022-06-17T14:50:00,cht,6.71
2022-06-17T14:51:00,cht,6.74
2022-06-17T14:52:00,cht,5.72
2022-06-17T14:53:00,cht,5.80
2022-06-17T14:54:00,cht,5.75
2022-06-17T14:55:00,cht,5.75
2022-06-17T14:56:00,cht,5.75
2022-06-17T14:57:00,cht,5.67
2022-06-17T14:58:00,cht,5.58
2022-06-17T14:59:00,cht,5.58
2022-06-17T15:00:00,cht,5.68
2022-06-17T15:01:00,cht,5.67
2022-06-17T15:02:00,cht,5.68
2022-06-17T15:03:00,cht,19.16
2022-06-17T15:04:00,cht,19.18
2022-06-17T15:05:00,cht,19.15
2022-06-17T15:06:00,cht,8.13
2022-06-17T15:07:00,cht,8.16
2022-06-17T15:08:00,cht,8.12
2022-06-17T15:09:00,cht,22.14
2022-06-17T15:10:00,cht,7.94
2022-06-17T15:11:00,cht,22.31
2022-06-17T15:12:00,cht,22.34
2022-06-17T15:13:00,cht,22.46
2022-06-17T15:14:00,cht,5.96
2022-06-17T15:15:00,cht,5.96
2022-06-17T15:16:00,cht,5.96
2022-06-17T15:17:00,cht,5.96
2022-06-17T15:18:00,cht,5.95
2022-06-17T15:19:00,cht,5.70
2022-06-17T15:20:00,cht,5.66
2022-06-17T15:21:00,cht,5.65
2022-06-17T15:22:00,cht,5.65
2022-06-17T15:23:00,cht,5.66
2022-06-17T15:24:00,cht,5.65
2022-06-17T15:25:00,cht,5.66
2022-06-17T15:26:00,cht,5.66
2022-06-17T15:27:00,cht,5.65
2022-06-17T15:28:00,cht,5.64
2022-06-17T15:29:00,cht,5.66
2022-06-17T15:30:00,cht,5.66
2022-06-17T15:31:00,cht,5.64
2022-06-17T15:32:00,cht,5.66
2022-06-17T15:33:00,cht,8.01
2022-06-17T15:34:00,cht,8.16
2022-06-17T15:35:00,cht,8.20
2022-06-17T15:36:00,cht,8.07
2022-06-17T15:37:00,cht,8.15
2022-06-17T15:38:00,cht,8.22